Location: ?astrovice
(49.6513°N, 14.9287°E)
Time: 06:40:15
(UTC+00:00)

FO-99 - Pass Details

Date: 26 October 2021
Orbit: 469 x 501 km, 97.2° (Epoch: 01 December)

Event Time Altitude Azimuth Distance (km) Brightness Sun altitude
Exits shadow 17:37:27 12° 20° (NNE) 1,615 ? -18.2°
Drops below altitude 10° 17:37:48 10° 16° (NNE) 1,726 ? -18.3°
Sets 17:40:17 0° 360° (N) 2,618 ? -18.7°
